Theta_e
330 330 332 332 333 336 339 341 342 342 342 342 344 344 347 348 350 349 347 345 344 342 343 343 342 342 341 340 338 339 337 335 338 338 332 338 337 337 341 338 335 339 337 337 335 335 338 340 338 340 341 340 338 339 339 340 339 342 340 339 340 339 339
330 329 330 331 332 336 339 340 341 342 341 341 344 343 346 348 349 348 346 345 344 342 343 342 342 342 341 341 338 338 338 337 340 343 342 341 340 336 331 337 331 333 335 335 335 337 339 339 339 339 338 339 337 338 338 337 338 337 338 338 337 337 337
329 330 329 331 332 335 338 339 341 342 340 341 345 344 345 348 348 347 346 344 343 342 343 342 344 342 341 341 339 336 335 338 338 338 336 337 334 333 333 338 334 332 332 335 338 338 339 335 337 337 336 335 336 337 337 337 337 338 338 338 338 339 336
327 328 329 331 333 335 339 339 340 342 342 343 345 344 346 348 347 347 346 344 342 342 342 341 343 341 343 340 338 337 337 338 336 333 334 336 335 335 337 333 335 334 334 333 335 337 339 336 334 336 344 337 336 337 337 336 335 335 336 337 337 337 336
326 328 329 330 333 335 338 339 340 343 344 345 346 347 348 348 347 346 345 345 343 342 342 342 343 340 343 341 339 338 337 336 337 335 335 337 337 334 332 332 334 333 334 337 337 337 336 336 337 336 336 336 336 335 335 335 336 337 337 337 336 337 337
327 327 328 330 332 335 338 340 342 345 345 344 345 347 348 347 347 345 345 345 343 343 343 343 341 342 341 340 341 340 339 337 337 336 336 337 336 334 332 333 331 333 334 334 339 338 338 337 336 336 334 335 333 332 332 333 334 335 334 335 336 337 338
327 330 334 331 332 336 338 340 344 346 345 345 346 347 348 346 346 345 344 344 344 343 341 343 341 342 341 341 340 342 339 338 336 336 335 337 337 334 332 332 336 334 333 337 334 335 335 335 334 334 335 334 334 332 332 333 334 335 335 334 333 335 339
328 329 331 332 332 337 339 341 344 345 345 345 345 345 348 345 345 344 343 345 345 344 342 342 341 343 341 341 341 339 338 337 337 337 336 335 335 336 335 336 336 335 335 332 333 336 336 334 335 335 334 333 333 333 333 333 334 334 333 332 331 333 337
329 330 332 333 333 338 340 342 343 344 343 343 343 344 346 344 344 343 343 345 344 342 342 343 343 344 343 340 339 337 337 337 336 336 335 335 335 335 335 336 335 336 334 334 335 336 335 335 334 334 335 334 332 330 331 334 334 335 334 333 332 331 332
329 331 334 335 335 337 339 340 342 342 342 342 342 342 344 343 343 342 342 344 343 341 341 341 344 344 342 341 339 338 337 337 337 337 337 335 336 335 334 335 334 335 335 334 334 333 335 336 335 335 332 330 330 331 332 332 332 335 335 333 332 331 331
331 333 333 333 333 335 336 337 339 340 341 341 341 342 343 343 341 341 340 342 342 341 341 341 344 342 340 339 338 338 337 337 338 336 336 334 335 334 333 331 330 336 335 334 333 332 332 332 332 330 329 331 331 331 332 333 333 334 334 332 332 331 332
331 335 333 332 332 332 333 335 337 338 340 342 342 341 341 342 340 340 340 340 341 341 340 340 342 342 339 337 337 336 336 335 335 335 334 333 332 332 332 330 330 329 330 329 327 327 328 327 329 333 330 328 326 327 329 331 331 334 333 332 330 329 330
323 331 334 335 333 332 333 333 334 336 338 341 343 341 341 341 338 338 338 339 340 341 340 339 340 340 339 338 336 336 334 334 333 333 333 334 332 332 332 331 328 329 329 329 326 326 327 329 329 330 330 330 331 331 331 332 331 328 334 331 330 330 330
332 333 337 338 335 333 333 333 334 335 338 340 341 341 340 341 338 337 337 338 338 339 338 340 340 340 339 339 338 337 334 334 334 333 333 334 335 334 332 331 330 331 333 334 331 330 328 329 329 329 332 331 330 330 331 328 332 335 332 332 331 330 330
327 332 328 335 335 336 335 334 335 336 338 340 340 340 340 340 339 338 338 338 336 337 337 340 341 340 340 339 339 338 335 334 334 334 335 337 336 335 333 332 332 333 333 334 333 334 331 331 331 330 330 330 330 328 329 333 333 335 332 329 329 331 331
325 326 329 327 337 336 337 337 337 338 339 340 340 339 340 339 338 338 337 334 335 337 336 337 338 337 338 338 339 340 337 335 336 335 335 335 334 332 332 332 333 333 332 333 333 333 334 332 333 333 330 328 326 327 332 332 332 334 331 333 333 331 332
323 323 324 327 333 337 337 338 339 339 340 340 339 339 340 338 336 336 335 332 335 336 337 336 335 335 335 335 339 340 338 336 336 336 335 335 333 333 332 332 333 333 333 334 334 335 335 335 332 331 329 327 327 325 331 330 332 330 326 327 330 331 328
322 328 330 337 334 335 337 338 338 338 339 340 340 340 339 336 334 333 331 329 334 336 338 337 337 337 336 337 340 338 337 336 335 335 334 334 333 334 334 333 333 333 333 334 334 335 335 334 332 331 330 329 326 325 331 328 329 325 323 325 325 329 328
327 328 326 328 338 338 338 338 339 339 340 342 340 340 338 336 332 330 329 328 334 337 337 337 338 339 339 337 338 337 335 334 334 333 333 333 333 333 333 332 333 333 333 333 335 335 335 333 332 331 331 328 325 324 328 328 328 324 322 323 323 325 326
325 324 324 324 325 337 339 338 338 340 340 342 341 340 339 337 332 331 330 330 333 334 334 336 338 339 338 336 337 338 335 334 333 332 333 333 333 333 332 332 332 332 333 334 334 335 334 332 331 330 328 328 326 327 329 330 327 322 320 320 320 321 325
331 330 326 326 326 327 331 338 338 337 339 341 342 340 339 336 334 331 331 333 332 333 333 336 338 337 337 336 339 338 335 334 334 333 333 334 333 333 332 333 332 333 334 333 332 333 332 331 329 328 330 330 330 330 331 333 324 319 318 317 316 318 323
321 322 324 326 324 324 325 338 339 338 340 343 342 340 339 336 336 332 333 334 332 334 335 337 337 337 337 336 339 337 335 335 334 334 334 334 334 333 332 332 332 332 333 335 333 332 331 330 330 329 329 328 329 330 330 331 321 318 316 315 315 319 322
322 323 323 330 328 327 330 343 341 341 343 341 341 340 339 338 337 334 335 334 334 335 336 337 336 335 335 335 338 337 336 335 334 333 334 334 334 333 332 331 331 332 334 334 333 330 329 328 327 327 326 327 329 329 329 328 320 314 313 313 314 317 320
322 324 325 335 341 339 339 351 344 342 343 340 339 339 340 338 337 334 333 333 333 333 333 336 335 335 335 336 337 337 336 335 335 333 333 332 333 333 332 332 333 332 333 330 328 327 326 326 327 328 328 326 324 329 328 328 326 316 312 312 313 316 321
323 325 329 330 328 327 329 339 345 346 344 342 339 338 337 337 334 333 331 331 330 330 331 333 335 335 335 336 337 336 336 336 335 334 332 331 332 332 332 331 332 332 332 331 329 327 327 329 327 327 324 323 325 329 323 324 320 311 313 313 313 319 322
328 328 331 333 329 329 339 341 337 335 335 331 332 335 335 334 332 330 328 327 328 328 329 332 335 335 335 336 336 336 336 335 335 334 332 331 331 331 331 332 332 334 334 331 329 328 328 327 329 324 324 323 323 326 325 323 323 324 311 312 313 314 320
324 325 325 323 333 341 336 334 331 327 325 326 329 330 332 335 332 329 329 327 328 328 331 333 334 334 333 333 334 335 335 334 333 332 332 332 332 332 333 332 337 338 334 330 329 327 327 328 325 324 325 323 325 324 324 325 324 324 316 314 313 312 316
325 324 341 339 337 336 336 334 329 328 326 328 329 332 332 331 331 329 327 328 326 328 332 333 333 333 332 332 332 332 333 332 332 333 333 334 334 332 333 334 330 329 331 330 328 327 327 327 326 324 324 323 323 322 322 327 329 326 320 317 312 308 310
321 320 334 335 335 338 336 331 328 325 326 328 330 331 330 329 327 328 329 329 331 334 332 332 333 333 332 332 331 331 331 332 334 336 334 332 331 330 338 336 331 327 327 326 325 326 326 325 324 324 323 323 321 322 323 323 325 323 325 316 309 306 308
325 331 335 336 338 337 336 330 327 326 327 331 332 331 329 326 326 331 327 324 328 329 332 334 337 335 332 332 334 335 334 335 335 331 331 335 334 333 329 331 332 332 329 329 327 325 324 323 323 322 321 321 322 323 323 322 323 324 322 319 311 308 306
326 325 328 330 333 336 336 331 326 325 327 329 330 331 328 327 333 330 327 330 334 331 331 334 334 333 331 332 337 337 335 334 333 332 329 329 331 332 330 328 327 323 324 324 327 326 326 322 322 320 319 319 320 319 319 321 323 325 321 319 315 312 308
323 326 326 328 331 335 334 331 328 327 328 330 331 332 332 331 332 328 328 334 333 333 333 333 332 331 333 337 335 331 330 330 331 330 329 331 329 325 323 321 323 325 326 326 328 326 324 323 322 321 319 321 320 319 318 320 321 319 317 319 317 314 311
326 324 325 328 331 333 331 331 331 332 333 331 332 335 337 336 335 333 336 336 336 336 336 334 335 337 335 335 333 328 327 328 329 330 330 325 325 326 328 326 328 327 326 324 325 328 327 324 322 321 322 321 321 320 320 322 316 313 314 313 311 311 312
328 330 329 328 329 329 328 329 329 330 328 327 326 326 328 331 334 335 333 333 335 337 337 337 334 331 331 332 336 332 331 331 339 331 324 322 319 317 318 322 323 320 317 316 318 317 318 320 319 318 319 318 320 319 319 315 310 309 310 311 310 309 308
329 329 330 328 327 328 328 328 327 325 324 324 324 320 319 320 325 330 331 332 336 337 333 332 334 334 332 331 328 328 328 326 328 324 320 314 309 307 306 310 316 312 309 309 309 314 317 316 314 315 314 318 317 318 320 317 310 309 305 309 305 306 305
331 331 330 330 330 329 329 327 324 322 322 323 322 320 320 322 326 328 329 334 335 334 332 333 333 333 329 325 326 325 325 324 322 324 319 315 311 309 308 304 298 306 311 308 307 304 302 305 310 311 313 309 306 309 312 310 309 301 297 295 294 295 295
331 331 332 331 328 326 325 325 327 326 325 324 322 321 322 324 325 326 331 332 330 333 334 333 330 327 324 326 323 324 325 321 324 325 319 318 315 312 310 307 305 295 296 302 302 298 294 294 296 300 307 311 306 305 303 302 297 294 294 293 293 293 293
329 330 332 333 332 330 328 328 327 326 324 323 324 324 325 325 326 328 329 327 330 328 330 329 329 325 323 323 324 327 326 322 326 327 326 321 318 314 312 309 306 306 297 294 295 295 293 292 293 293 296 302 306 304 305 299 294 294 294 293 293 293 293
Wind_Speed
12 13 14 14 14 16 17 17 17 16 16 13 13 15 14 13 13 12 12 12 12 11 9 9 9 8 8 8 6 6 7 6 4 4 3 3 4 4 3 3 3 3 2 2 2 1 1 1 2 2 1 0 0 1 1 1 2 3 3 3 2 3 3
12 10 13 13 14 14 16 17 16 15 15 14 14 15 13 14 14 13 12 12 13 13 11 10 9 8 8 8 7 6 7 7 6 4 4 3 3 3 4 3 3 2 2 2 2 3 2 3 3 2 1 0 1 2 2 3 3 3 3 3 3 3 3
12 13 13 14 14 14 17 16 16 17 17 15 15 15 14 14 14 15 14 13 12 12 10 10 10 9 8 9 8 8 7 6 6 7 6 5 4 5 4 4 4 3 3 4 3 4 3 3 3 3 2 3 3 3 3 3 4 4 3 3 3 4 3
11 14 12 16 16 15 18 18 18 17 17 17 17 17 14 15 15 16 15 15 15 13 13 10 9 9 8 10 9 8 8 7 8 7 7 6 5 4 4 4 4 4 3 4 3 3 3 3 2 2 3 2 3 3 3 4 4 4 4 4 4 5 4
11 14 12 14 16 15 16 17 17 17 18 18 17 16 15 15 14 14 14 15 16 16 14 13 10 8 8 9 7 7 9 9 8 7 7 5 6 6 5 4 4 4 5 4 4 3 2 3 3 2 3 3 2 3 3 4 4 4 4 4 4 4 5
10 12 12 15 16 16 17 18 19 18 18 18 17 14 13 16 14 15 14 15 13 13 12 11 10 9 9 9 8 8 8 8 7 7 6 6 6 6 5 5 4 4 4 3 2 3 3 2 2 2 3 3 3 4 4 3 4 3 3 3 3 5 5
11 9 8 11 14 15 16 16 16 16 17 16 15 12 13 15 16 15 14 15 15 16 15 13 11 10 8 8 8 9 9 8 7 7 6 5 6 6 5 5 5 5 5 3 3 2 2 2 3 4 4 4 4 4 4 3 3 3 3 3 4 4 4
9 9 7 10 11 11 11 11 12 12 12 12 13 13 13 13 13 15 15 15 15 15 14 13 11 10 8 7 8 9 9 9 7 8 7 6 6 6 6 6 6 6 4 4 4 4 4 4 5 4 5 4 4 4 4 4 4 5 4 4 3 4 3
10 10 9 10 12 16 17 16 16 16 16 15 15 14 14 14 15 15 15 14 13 14 13 12 12 10 9 8 8 9 9 9 7 8 8 7 6 7 7 7 7 6 6 5 5 4 5 6 6 6 6 5 4 4 4 5 5 5 5 5 5 4 3
6 5 7 10 14 16 15 14 14 14 14 15 14 14 14 15 14 14 14 14 13 14 14 12 11 11 10 9 9 10 9 8 8 8 8 8 7 8 8 8 8 6 5 6 5 6 5 5 6 6 4 4 4 4 5 5 5 6 6 6 4 2 3
10 8 8 11 15 16 16 16 16 16 17 16 16 15 14 15 15 15 15 14 14 14 14 12 12 12 10 10 10 9 9 8 8 9 9 9 8 9 8 8 6 6 8 7 6 7 6 5 4 4 5 7 7 6 5 5 6 4 4 1 3 2 3
8 9 10 13 16 16 18 18 17 16 15 14 15 16 15 15 15 15 15 16 15 15 14 13 12 12 12 11 10 9 9 9 8 9 9 8 8 8 8 6 5 7 7 7 6 4 4 5 5 5 6 6 5 5 5 5 3 4 1 4 3 3 4
8 8 8 11 15 15 13 11 14 15 15 15 15 15 14 16 16 16 15 16 16 15 15 13 13 13 13 12 10 9 9 10 9 9 8 8 7 6 5 5 4 3 2 4 4 3 3 4 5 5 5 5 4 4 3 3 3 1 5 4 3 4 4
9 6 6 10 10 13 15 16 16 15 15 15 14 14 13 14 16 17 15 16 15 15 14 11 14 14 13 11 10 10 11 11 10 9 8 8 7 7 6 5 5 4 4 3 3 3 3 4 5 6 5 5 3 2 3 2 2 4 4 4 4 3 4
5 7 6 10 13 15 16 16 16 16 15 13 13 14 15 14 13 12 12 14 14 13 14 13 15 14 12 11 11 11 11 10 9 8 8 7 7 7 6 5 5 5 4 3 3 4 5 5 5 6 4 3 3 4 3 2 4 3 4 3 3 4 5
6 6 6 5 12 15 16 17 16 16 16 15 15 16 15 15 14 14 15 13 13 13 13 14 14 13 12 12 10 11 11 10 8 8 8 7 7 7 7 7 6 5 5 5 6 6 6 6 5 5 5 4 4 4 2 4 3 5 8 8 5 5 5
2 1 0 3 8 12 15 16 17 15 17 18 18 18 16 15 15 14 15 14 14 14 14 14 13 13 13 12 9 10 10 9 9 9 9 8 8 7 7 8 6 5 5 6 6 7 7 7 7 6 5 4 4 4 3 4 4 9 10 9 9 5 4
0 3 2 1 4 9 10 14 15 17 18 18 18 17 15 14 14 15 16 14 14 14 14 14 13 12 10 10 9 9 10 9 9 10 10 8 9 8 8 6 6 6 6 6 7 7 7 7 7 7 5 5 5 5 5 5 8 11 10 9 6 3 3
2 0 1 2 5 8 10 12 13 16 17 16 17 16 16 17 16 17 16 15 14 14 14 14 12 10 10 10 9 10 10 10 10 10 9 9 9 8 6 6 6 6 6 7 8 6 6 7 7 6 6 6 6 5 5 6 9 10 10 6 4 5 4
2 1 2 3 2 7 11 11 11 14 17 17 18 20 18 19 20 18 17 16 14 15 14 13 11 11 11 11 10 10 11 11 10 10 10 9 8 7 6 6 7 7 7 7 5 6 6 7 7 7 6 7 6 7 6 6 7 10 10 9 8 7 4
1 3 4 5 5 6 6 12 10 10 12 13 16 15 16 16 16 13 13 14 15 14 14 12 11 10 10 10 10 10 10 11 10 10 9 9 8 7 7 8 8 8 7 7 7 7 8 8 7 6 6 6 6 6 6 5 9 11 9 7 5 5 3
3 4 5 7 7 7 7 7 12 13 13 13 15 15 17 17 16 16 14 15 16 13 12 12 12 11 11 11 10 11 12 12 11 10 9 9 9 8 9 9 9 9 7 6 6 6 5 4 4 5 5 6 5 4 5 3 9 9 8 7 6 4 2
0 1 2 3 8 8 6 4 10 12 12 14 16 17 17 15 16 15 15 15 13 13 13 12 12 12 12 12 11 11 12 12 12 10 10 10 9 10 10 9 9 7 6 6 6 6 6 6 5 4 4 4 3 3 2 1 4 7 8 6 6 2 4
5 0 4 2 2 2 1 2 6 8 13 16 17 17 15 17 18 18 16 15 14 13 12 13 13 12 12 12 11 11 12 12 11 11 11 10 11 11 10 9 8 8 7 8 8 8 8 6 4 3 4 3 6 7 4 2 2 1 2 3 3 4 4
1 3 5 4 4 4 7 8 1 8 9 10 13 9 9 11 14 11 6 8 13 14 13 12 12 12 12 12 12 11 11 11 11 12 11 11 11 10 9 9 8 8 6 7 8 7 4 2 2 2 3 3 8 10 9 4 4 6 4 1 4 2 3
2 1 2 1 2 5 9 8 15 15 10 13 19 20 14 9 11 17 17 14 13 13 12 11 12 12 13 12 11 11 11 10 11 11 11 11 10 8 8 6 4 4 5 2 1 1 2 1 3 2 1 5 5 5 5 5 3 4 9 1 5 2 2
1 2 3 2 5 7 9 10 12 15 18 15 16 16 14 6 5 2 5 10 11 12 11 9 11 12 12 11 10 10 10 10 10 11 10 9 9 7 4 4 4 5 5 4 2 3 2 2 2 1 4 5 5 6 4 5 3 2 3 2 2 1 4
3 1 6 6 6 8 9 11 14 15 16 15 16 15 13 7 5 5 6 7 9 9 8 10 12 12 11 9 10 10 10 10 8 9 7 5 5 6 5 4 5 5 7 6 1 4 3 2 4 5 5 4 3 3 3 4 6 2 2 5 3 5 6
5 3 5 5 4 4 12 12 12 15 15 15 15 14 14 17 15 10 8 3 4 4 8 10 11 11 10 10 10 9 8 6 5 4 5 5 5 5 6 6 5 5 4 3 2 1 2 4 4 5 5 4 2 2 1 1 1 2 1 4 8 6 4
5 7 7 5 6 7 12 14 13 13 13 10 8 11 12 13 11 8 9 8 5 9 9 8 6 5 4 4 4 3 4 5 5 6 6 6 6 6 6 4 5 6 3 3 1 1 3 4 5 2 2 4 4 3 3 1 0 2 5 6 8 7 9
8 4 5 9 8 7 8 14 14 13 12 10 10 7 6 5 6 8 7 5 4 9 9 8 7 7 6 4 5 5 5 5 6 6 5 5 6 6 7 4 3 3 2 2 2 4 5 4 3 2 1 4 3 2 1 1 1 4 7 9 9 9 9
7 5 5 4 8 12 14 13 13 13 11 6 4 4 5 5 6 11 8 6 5 6 7 6 7 7 6 6 6 6 7 7 6 5 5 5 6 6 5 5 3 2 3 3 5 5 5 3 3 2 2 3 4 3 2 2 2 4 4 5 4 4 6
4 4 6 6 5 9 12 14 13 11 9 8 5 7 8 9 6 8 6 6 6 5 6 7 7 6 6 7 6 6 6 7 6 5 5 4 4 5 4 3 5 6 6 5 5 4 3 2 2 2 3 5 5 4 3 4 4 3 2 1 1 1 2
4 5 3 5 7 9 7 8 11 13 12 11 9 9 8 8 8 8 6 6 7 7 6 7 6 7 5 6 6 6 6 7 9 8 6 6 6 6 6 6 6 7 6 5 4 5 4 4 3 2 1 4 4 4 5 4 3 1 1 1 1 1 3
5 5 6 6 6 11 13 10 10 10 10 8 7 9 10 9 8 7 7 5 7 8 8 6 5 5 4 6 7 6 6 7 6 7 7 8 9 8 6 5 5 7 6 4 3 1 3 5 3 1 2 2 2 2 4 4 2 2 2 0 1 0 1
3 4 4 4 4 7 9 11 13 12 11 8 8 10 9 7 7 10 10 9 7 10 7 3 3 4 3 4 6 6 6 5 5 7 8 8 8 9 9 11 10 6 5 4 4 9 9 6 2 0 0 5 3 1 2 4 3 3 3 3 3 2 4
7 6 7 6 8 6 8 6 7 8 9 7 7 9 9 7 7 10 12 8 7 7 5 3 3 4 3 4 6 7 6 6 6 8 8 8 8 8 9 7 8 12 12 9 7 7 9 10 8 8 6 5 4 3 7 6 5 5 3 3 4 4 6
5 7 8 7 9 8 7 7 6 7 7 6 9 11 10 10 11 10 7 6 5 8 9 5 4 5 4 5 4 5 6 5 5 6 8 7 7 8 8 8 8 5 8 7 6 7 9 10 10 9 8 7 5 4 1 1 1 3 4 5 5 8 7
Wind_Direction
177 167 174 172 171 170 170 169 169 170 170 167 172 171 167 165 163 162 160 158 154 154 156 156 158 162 161 159 157 144 139 143 137 147 149 154 138 146 140 151 137 174 171 156 205 204 231 320 279 250 197 178 235 269 260 257 269 258 257 253 250 250 255
187 171 169 175 174 169 168 166 166 170 173 168 170 174 170 167 163 160 161 160 158 159 162 162 163 169 164 160 159 147 146 152 144 142 127 151 149 155 149 168 156 183 178 197 207 224 201 229 232 217 186 189 226 233 246 253 254 257 260 269 267 265 260
187 185 165 175 177 168 170 167 169 173 175 171 170 175 172 169 166 161 159 159 158 160 162 165 168 170 166 161 158 161 154 148 147 147 156 170 183 181 187 161 170 175 211 224 206 214 209 251 237 201 202 218 237 240 248 255 256 247 241 249 249 242 243
186 187 177 172 176 170 170 173 173 174 177 174 172 175 168 169 167 163 162 161 161 163 165 170 168 169 172 166 162 162 157 156 160 163 171 185 189 188 175 186 175 190 213 228 233 229 226 201 242 267 248 220 232 237 235 258 272 269 259 250 244 235 236
181 182 173 168 173 172 172 175 177 174 176 176 172 169 164 164 164 164 163 163 163 166 168 169 169 172 172 168 166 162 162 162 166 173 183 184 171 170 169 184 195 198 211 211 208 203 227 239 233 225 256 242 246 256 269 264 266 266 268 251 248 250 244
187 181 175 172 173 174 175 178 178 175 175 174 170 163 159 160 162 165 164 162 163 164 164 165 167 174 170 171 162 163 162 168 164 172 168 175 161 169 178 197 195 200 184 210 211 200 197 193 208 232 251 253 247 258 258 268 271 275 285 291 264 258 249
177 168 158 175 175 174 176 176 176 176 178 174 167 155 156 162 166 166 165 165 164 164 169 168 171 170 166 165 164 161 163 164 166 168 169 167 168 172 187 203 214 203 207 180 190 203 204 217 237 243 238 244 249 243 246 254 267 265 269 273 283 275 247
166 176 164 158 157 148 156 169 175 177 177 169 166 167 159 164 163 167 171 169 166 167 169 167 167 166 163 162 168 163 159 161 167 170 169 172 177 181 192 206 208 208 192 194 222 197 211 220 230 229 234 235 236 229 235 248 256 261 260 262 255 259 248
171 176 160 153 144 159 167 174 175 178 178 177 177 174 166 167 169 171 171 167 168 167 168 167 167 163 161 164 165 164 159 161 168 170 173 177 187 192 198 205 216 211 203 200 205 210 219 226 225 231 229 224 229 247 247 244 244 244 237 238 249 257 250
173 165 169 145 146 165 178 177 173 174 180 181 178 176 173 172 169 168 168 168 166 169 168 166 165 162 160 168 169 165 160 164 174 175 179 186 188 196 202 206 217 208 191 195 196 208 224 223 226 220 222 239 255 248 247 248 249 245 231 232 249 314 339
164 175 173 150 153 167 175 178 181 182 182 182 182 181 176 172 171 168 169 168 168 172 172 168 164 164 164 169 172 166 160 167 175 181 185 189 190 199 204 213 203 170 196 199 205 213 213 220 229 241 246 244 241 241 243 244 241 237 240 261 88 184 208
150 158 168 157 169 173 181 185 187 186 181 176 178 180 178 175 170 169 168 171 169 171 174 169 164 165 169 176 171 164 165 174 179 186 190 193 195 200 207 198 175 181 185 184 191 208 226 237 248 230 232 232 240 243 243 244 232 226 201 129 195 242 251
169 174 165 151 173 180 180 184 191 188 182 180 177 177 176 173 170 169 170 171 171 170 172 167 166 165 174 179 166 165 173 179 187 190 191 197 200 203 200 198 200 211 219 139 153 177 206 231 229 241 241 247 240 237 237 220 237 108 130 181 207 232 252
176 170 161 156 164 176 183 189 190 187 187 186 183 179 172 174 172 173 173 172 170 167 168 165 164 168 177 172 166 171 180 186 187 189 193 193 195 196 197 193 201 203 183 177 177 179 200 235 253 257 243 225 212 234 247 273 95 142 175 195 207 224 252
171 191 188 157 171 179 184 190 191 188 185 186 182 180 177 175 176 173 175 171 168 162 162 159 160 170 172 171 171 178 183 186 185 187 188 182 182 191 198 203 207 200 185 175 189 212 223 227 241 263 253 258 265 265 265 138 170 166 195 220 230 208 222
177 189 210 187 182 182 187 186 188 185 181 181 181 181 180 178 177 174 171 166 161 156 158 156 163 166 171 173 174 178 182 182 181 186 189 184 182 186 193 200 200 191 191 201 215 220 221 221 232 238 234 241 263 273 241 177 187 218 215 212 203 211 225
159 210 159 194 189 199 187 185 184 183 182 183 181 181 178 176 174 172 166 161 158 157 160 158 162 167 169 178 168 173 178 176 181 183 187 191 190 193 200 205 197 194 200 207 213 218 217 214 222 228 224 215 210 228 184 198 214 219 222 224 228 230 254
30 136 161 31 180 194 203 190 186 184 186 185 181 177 174 169 167 166 168 160 158 159 160 161 164 165 165 168 161 168 174 176 177 181 186 186 193 199 200 195 193 200 205 209 219 223 217 217 220 225 227 218 211 222 199 209 223 217 224 230 240 251 248
155 193 271 171 154 173 189 198 192 189 187 181 177 176 173 164 166 172 169 165 163 156 159 161 160 152 163 164 160 168 171 175 177 181 184 189 197 199 192 189 194 205 208 216 221 221 218 221 226 227 214 203 208 216 213 220 224 214 222 233 248 265 245
187 243 277 304 240 178 198 201 198 192 184 182 180 177 171 170 171 175 171 164 155 157 159 158 156 155 159 164 166 167 174 177 180 185 189 192 196 196 194 190 202 211 215 219 221 220 223 224 227 227 214 209 213 221 219 216 209 199 205 210 212 227 219
186 198 220 226 246 251 198 195 198 190 187 182 180 174 169 174 173 161 156 156 159 159 159 154 150 155 158 165 173 172 177 179 184 189 192 196 195 193 196 197 206 214 218 214 215 217 217 219 226 228 218 213 211 211 212 207 191 190 199 209 226 246 246
216 227 237 229 228 231 237 186 195 190 188 184 176 174 174 175 169 160 157 160 161 161 153 152 159 166 167 172 173 178 181 183 186 190 193 195 194 196 200 202 204 213 214 209 215 220 219 229 223 225 220 217 212 206 213 192 180 185 196 209 224 232 265
111 248 232 240 230 226 226 181 188 189 180 178 181 180 180 168 160 155 155 159 158 153 154 157 162 170 175 178 179 182 184 184 186 190 195 193 193 200 202 203 208 215 203 204 211 221 224 227 226 222 219 226 208 206 224 126 207 187 207 217 223 221 254
176 74 353 11 118 136 144 156 171 185 183 188 190 183 173 163 161 157 158 156 155 152 155 159 172 175 175 180 185 185 185 187 186 192 196 195 197 202 203 201 201 204 198 198 210 224 228 221 234 216 189 155 82 78 80 62 328 249 227 240 300 273 280
80 123 120 122 77 40 19 1 2 175 195 201 195 179 151 130 99 76 90 150 158 158 160 170 171 175 178 185 187 185 187 188 191 193 197 199 204 202 200 199 199 209 198 207 213 223 213 214 199 144 179 101 105 113 106 89 72 114 126 198 267 234 240
105 353 57 144 137 70 78 67 47 33 33 47 35 26 23 48 133 157 168 183 166 167 173 173 173 175 183 185 185 186 187 190 193 196 197 202 205 201 201 196 194 206 202 226 244 185 205 202 128 183 192 104 127 112 122 126 162 180 195 157 44 196 225
16 313 220 167 106 114 85 66 82 94 98 91 80 64 36 344 84 325 222 171 166 180 184 167 166 176 185 183 181 183 189 193 194 198 200 198 197 187 170 137 126 135 141 160 175 171 178 138 174 131 85 107 100 119 125 151 180 235 81 64 74 58 54
229 259 72 118 133 108 111 102 107 103 99 104 108 112 115 115 194 214 234 175 179 182 163 164 176 183 178 177 183 187 195 195 200 199 188 168 144 135 129 135 120 120 84 79 100 230 164 129 128 111 97 91 104 118 158 202 200 188 51 53 16 54 57
267 209 129 95 85 111 111 107 110 119 121 128 129 137 143 149 172 193 215 182 165 147 164 171 172 170 173 182 188 195 194 189 174 136 131 132 122 113 113 121 116 107 112 126 202 202 94 109 103 103 123 138 146 173 222 269 1 88 95 84 65 59 80
290 161 140 126 135 147 123 123 132 127 130 131 139 145 157 168 163 152 147 146 144 108 105 105 109 115 121 133 136 121 119 116 116 127 120 123 122 119 122 123 115 99 88 228 211 122 109 99 103 113 129 126 145 176 214 181 109 131 84 72 68 60 31
29 12 107 126 118 91 104 127 131 137 142 152 161 171 156 149 131 134 130 169 137 115 113 113 110 111 119 131 143 139 137 121 122 130 133 132 123 113 111 101 96 107 203 195 128 115 111 137 143 141 168 122 166 189 249 55 94 75 74 58 43 38 22
52 41 14 59 113 123 132 130 133 142 145 143 166 181 162 140 147 132 151 153 131 114 112 107 105 108 113 114 113 121 121 123 131 134 138 124 119 132 146 147 163 183 138 116 109 115 122 162 165 168 146 148 166 188 184 124 100 85 62 55 32 27 4
71 69 88 76 90 113 121 133 134 130 127 128 131 113 111 129 139 131 134 127 122 112 99 89 91 87 84 94 125 144 147 133 129 116 112 109 92 70 57 66 107 101 88 83 94 100 103 94 125 142 142 165 184 178 128 112 85 74 94 94 78 30 4
111 98 82 107 118 107 102 113 122 124 125 123 118 108 110 116 125 136 142 144 133 126 119 117 118 108 103 99 104 115 120 118 130 124 94 62 59 57 49 44 73 85 73 70 83 101 82 86 70 93 172 200 182 149 137 123 123 143 134 111 54 28 5
132 135 144 133 131 129 131 124 116 118 107 101 99 93 89 83 82 88 85 76 79 76 68 74 79 83 83 104 114 114 119 122 130 123 110 94 76 62 45 35 60 89 71 21 340 51 129 114 104 82 1 93 104 167 175 164 155 179 186 134 67 101 345
108 103 102 119 119 118 122 129 130 124 114 108 102 88 80 77 77 73 73 72 57 84 87 69 111 117 131 125 129 134 137 140 141 116 118 117 112 103 77 50 43 41 113 124 44 55 54 76 105 259 67 102 34 353 131 154 177 139 151 216 244 252 246
126 113 108 111 107 101 107 115 118 112 110 116 107 107 98 77 67 62 42 37 57 56 94 189 165 142 143 133 144 152 152 143 113 113 128 124 122 110 110 103 52 39 37 50 60 63 64 64 60 50 73 117 111 36 69 102 122 161 198 238 251 234 249
120 117 117 119 122 129 123 118 113 109 113 117 108 105 107 105 97 87 76 40 349 250 210 175 147 152 137 112 108 125 143 128 115 113 107 122 127 127 132 122 112 64 28 31 41 53 61 58 48 42 46 83 116 133 48 77 176 192 227 238 245 249 249